Flag for China Weather past 2 weeks in Nanning, Guangxi, China

Now
75 °F

Light rain. Mostly cloudy.


Feels Like: 75 °F
Forecast: 75 / 82 °F
Wind: 10 mph from North

Location: Nanning Airport

Current Time: Jul 5, 2015 at 3:03:34 AM

Latest Report: Jul 5, 2015 at 2:00 AM


Visibility: N/A

Pressure: 29.65 "Hg

Humidity: 89%

Dew point: 72 °F

Location of NanningLocation

Historic Weather in Nanning — Graph

°F

Nanning temperature yesterday

Maximum temperature yesterday: 84 °F (at 12:00 AM)
Minimum temperature yesterday: 77 °F (at 11:00 PM)
Average temperature yesterday: 82 °F

Past Weeks' High & Low Weather Summary

 TemperatureHumidityPressure
High99 °F (Jul 1, 3:00 PM)94% (Jun 20, 5:00 AM)29.77 "Hg (Jun 20, 5:00 AM)
Low75 °F (Jul 5, 12:00 AM)44% (Jun 21, 4:00 PM)29.45 "Hg (Jun 23, 5:00 PM)
Average86 °F77%29.59 "Hg
* Reported Jun 20 2:00 AM — Jul 5 2:00 AM, Nanning, Weather by CustomWeather, © 2015

Note: Actual official high and low records may vary slightly from our data, if they occured in-between our weather recording intervals... More about our weather records

Advertising

Nanning weather history for previous 24 hours

 ConditionsComfort  
Time TempWeatherWind HumidityBarometerVisibility
2:00 AM
Sun, Jul 5
75 °FLight rain. Mostly cloudy.10 mph89%29.65 "HgN/A
1:00 AM75 °FLight rain. Mostly cloudy.10 mph94%29.68 "HgN/A
12:00 AM75 °FLight rain. Mostly cloudy.10 mph94%29.68 "HgN/A
11:00 PM
Sat, Jul 4
77 °FLight rain. Mostly cloudy.6 mph94%29.68 "HgN/A
10:00 PM79 °FLight rain. Mostly cloudy.6 mph94%29.65 "HgN/A
9:00 PM81 °FMostly cloudy.6 mph89%29.62 "HgN/A
8:00 PM81 °FMostly cloudy.6 mph89%29.59 "HgN/A
7:00 PM82 °FMore clouds than sun.6 mph84%29.56 "HgN/A
6:00 PM82 °FBroken clouds.10 mph84%29.56 "HgN/A
5:00 PM82 °FThunderstorms. Broken clouds.6 mph84%29.56 "HgN/A
4:00 PM82 °FBroken clouds.6 mph84%29.56 "HgN/A
3:00 PM82 °FThunderstorms. Broken clouds.1 mph84%29.59 "HgN/A
2:00 PM82 °FMore clouds than sun.6 mph79%29.59 "HgN/A
1:00 PM81 °FMore clouds than sun.6 mph84%29.59 "HgN/A
12:00 PM81 °FBroken clouds.13 mph84%29.59 "HgN/A
11:00 AM82 °FPassing clouds.13 mph79%29.59 "HgN/A
10:00 AM82 °FPassing clouds.8 mph84%29.59 "HgN/A
9:00 AM82 °FMore clouds than sun.6 mph84%29.59 "Hg4 mi
8:00 AM82 °FScattered clouds.6 mph89%29.56 "HgN/A
7:00 AM82 °FPartly sunny.1 mph89%29.53 "HgN/A
6:00 AM81 °FPassing clouds.1 mph89%29.53 "HgN/A
5:00 AM82 °FPassing clouds.3 mph84%29.53 "HgN/A
4:00 AM82 °FPassing clouds.1 mph89%29.53 "HgN/A
3:00 AM82 °FClear.1 mph84%29.53 "Hg10 mi
Weather by CustomWeather, © 2015

See weather overviewHow to use our weather pages